Location: ??????
(38.0131°N, 23.7723°E)
Time: 06:29:46
(UTC+00:00)

CZ-4C R/B - Pass Details

Date: 17 October 2021
Orbit: 403 x 482 km, 97.7° (Epoch: 28 November)

Event Time Altitude Azimuth Distance (km) Brightness Sun altitude
Rises 16:40:23 0° 11° (N) 2,489 6.5 -11.8°
Reaches altitude 10° 16:42:27 10° 11° (N) 1,596 5.5 -12.2°
Maximum altitude 16:45:52 86° 285° (WNW) 451 2.9 -12.8°
Drops below altitude 10° 16:49:10 10° 194° (SSW) 1,537 5.8 -13.5°
Sets 16:51:08 0° 194° (SSW) 2,385 6.8 -13.9°
